User: anonymous   Login
Location: Arbon
(43.0005°N, 0.7472°E)
Time: 15:17:31
(UTC+00:00)
Language:

SL-4 R/B - Orbit

View from above orbital plane
View from above orbital plane
View from above satellite
View from above satellite

Ground track
Ground track

The orbit data is extracted from the following two-line orbital elements,

1 39679U 14021B   22266.78945028  .00004307  00000-0  21186-3 0  9998
2 39679  51.6137 217.8419 0162753 300.6204  57.8804 15.09312674463968
Epoch (UTC): 23 September 2022 18:56:48
Eccentricity: 0.0162753
inclination: 51.6137°
perigee height: 426 km
apogee height: 651 km
right ascension of ascending node: 217.8419°
argument of perigee: 300.6204°
revolutions per day: 15.09312674
mean anomaly at epoch: 57.8804°
orbit number at epoch: 46396

The dashed part of the orbit path shows where the satellite is in the earth's shadow,  

DLR